Year,Month,Day,Hour,Minute,Value (Times are PST for temperature in C)
2014,12,08,00,00,7.60
2014,12,08,00,01,7.60
2014,12,08,00,02,7.60
2014,12,08,00,03,7.60
2014,12,08,00,04,7.60
2014,12,08,00,05,7.60
2014,12,08,00,06,7.60
2014,12,08,00,07,7.60
2014,12,08,00,08,7.60
2014,12,08,00,09,7.60
2014,12,08,00,10,7.70
2014,12,08,00,11,7.70
2014,12,08,00,12,7.70
2014,12,08,00,13,7.70
2014,12,08,00,14,7.70
2014,12,08,00,15,7.70
2014,12,08,00,16,7.70
2014,12,08,00,17,7.70
2014,12,08,00,18,7.70
2014,12,08,00,19,7.70
2014,12,08,00,20,7.60
2014,12,08,00,21,7.60
2014,12,08,00,22,7.60
2014,12,08,00,23,7.60
2014,12,08,00,24,7.60
2014,12,08,00,25,7.60
2014,12,08,00,26,7.60
2014,12,08,00,27,7.60
2014,12,08,00,28,7.60
2014,12,08,00,29,7.60
2014,12,08,00,30,7.60
2014,12,08,00,31,7.60
2014,12,08,00,32,7.60
2014,12,08,00,33,7.60
2014,12,08,00,34,7.60
2014,12,08,00,35,7.60
2014,12,08,00,36,7.60
2014,12,08,00,37,7.60
2014,12,08,00,38,7.60
2014,12,08,00,39,7.50
2014,12,08,00,40,7.50
2014,12,08,00,41,7.50
2014,12,08,00,42,7.50
2014,12,08,00,43,7.50
2014,12,08,00,44,7.50
2014,12,08,00,45,7.50
2014,12,08,00,46,7.50
2014,12,08,00,47,7.50
2014,12,08,00,48,7.40
2014,12,08,00,49,7.40
2014,12,08,00,50,7.40
2014,12,08,00,51,7.40
2014,12,08,00,52,7.40
2014,12,08,00,53,7.40
2014,12,08,00,54,7.40
2014,12,08,00,55,7.40
2014,12,08,00,56,7.40
2014,12,08,00,57,7.40
2014,12,08,00,58,7.40
2014,12,08,00,59,7.40
2014,12,08,01,00,7.40
2014,12,08,01,01,7.40
2014,12,08,01,02,7.40
2014,12,08,01,03,7.40
2014,12,08,01,04,7.40
2014,12,08,01,05,7.40
2014,12,08,01,06,7.40
2014,12,08,01,07,7.40
2014,12,08,01,08,7.40
2014,12,08,01,09,7.40
2014,12,08,01,10,7.40
2014,12,08,01,11,7.40
2014,12,08,01,12,7.40
2014,12,08,01,13,7.40
2014,12,08,01,14,7.40
2014,12,08,01,15,7.40
2014,12,08,01,16,7.40
2014,12,08,01,17,7.50
2014,12,08,01,18,7.50
2014,12,08,01,19,7.50
2014,12,08,01,20,7.50
2014,12,08,01,21,7.50
2014,12,08,01,22,7.50
2014,12,08,01,23,7.50
2014,12,08,01,24,7.50
2014,12,08,01,25,7.50
2014,12,08,01,26,7.50
2014,12,08,01,27,7.60
2014,12,08,01,28,7.60
2014,12,08,01,29,7.60
2014,12,08,01,30,7.60
2014,12,08,01,31,7.60
2014,12,08,01,32,7.60
2014,12,08,01,33,7.60
2014,12,08,01,34,7.60
2014,12,08,01,35,7.60
2014,12,08,01,36,7.70
2014,12,08,01,37,7.70
2014,12,08,01,38,7.70
2014,12,08,01,39,7.70
2014,12,08,01,40,7.70
2014,12,08,01,41,7.70
2014,12,08,01,42,7.80
2014,12,08,01,43,7.80
2014,12,08,01,44,7.80
2014,12,08,01,45,7.80
2014,12,08,01,46,7.80
2014,12,08,01,47,7.80
2014,12,08,01,48,7.90
2014,12,08,01,49,7.90
2014,12,08,01,50,7.90
2014,12,08,01,51,7.90
2014,12,08,01,52,7.90
2014,12,08,01,53,8.00
2014,12,08,01,54,8.00
2014,12,08,01,55,8.00
2014,12,08,01,56,8.00
2014,12,08,01,57,8.00
2014,12,08,01,58,8.00
2014,12,08,01,59,8.00
2014,12,08,02,00,8.00
2014,12,08,02,01,8.00
2014,12,08,02,02,8.00
2014,12,08,02,03,8.00
2014,12,08,02,04,8.00
2014,12,08,02,05,8.00
2014,12,08,02,06,7.90
2014,12,08,02,07,7.90
2014,12,08,02,08,7.90
2014,12,08,02,09,7.90
2014,12,08,02,10,7.90
2014,12,08,02,11,7.80
2014,12,08,02,12,7.80
2014,12,08,02,13,7.80
2014,12,08,02,14,7.80
2014,12,08,02,15,7.80
2014,12,08,02,16,7.80
2014,12,08,02,17,7.80
2014,12,08,02,18,7.80
2014,12,08,02,19,7.80
2014,12,08,02,20,7.80
2014,12,08,02,21,7.80
2014,12,08,02,22,7.80
2014,12,08,02,23,7.80
2014,12,08,02,24,7.80
2014,12,08,02,25,7.80
2014,12,08,02,26,7.70
2014,12,08,02,27,7.70
2014,12,08,02,28,7.70
2014,12,08,02,29,7.70
2014,12,08,02,30,7.70
2014,12,08,02,31,7.70
2014,12,08,02,32,7.70
2014,12,08,02,33,7.70
2014,12,08,02,34,7.70
2014,12,08,02,35,7.70
2014,12,08,02,36,7.70
2014,12,08,02,37,7.70
2014,12,08,02,38,7.70
2014,12,08,02,39,7.70
2014,12,08,02,40,7.70
2014,12,08,02,41,7.70
2014,12,08,02,42,7.70
2014,12,08,02,43,7.70
2014,12,08,02,44,7.70
2014,12,08,02,45,7.70
2014,12,08,02,46,7.70
2014,12,08,02,47,7.70
2014,12,08,02,48,7.70
2014,12,08,02,49,7.70
2014,12,08,02,50,7.70
2014,12,08,02,51,7.70
2014,12,08,02,52,7.70
2014,12,08,02,53,7.70
2014,12,08,02,54,7.70
2014,12,08,02,55,7.70
2014,12,08,02,56,7.70
2014,12,08,02,57,7.60
2014,12,08,02,58,7.60
2014,12,08,02,59,7.60
2014,12,08,03,00,7.60
2014,12,08,03,01,7.60
2014,12,08,03,02,7.60
2014,12,08,03,03,7.60
2014,12,08,03,04,7.60
2014,12,08,03,05,7.60
2014,12,08,03,06,7.50
2014,12,08,03,07,7.50
2014,12,08,03,08,7.50
2014,12,08,03,09,7.50
2014,12,08,03,10,7.40
2014,12,08,03,11,7.40
2014,12,08,03,12,7.40
2014,12,08,03,13,7.40
2014,12,08,03,14,7.40
2014,12,08,03,15,7.40
2014,12,08,03,16,7.40
2014,12,08,03,17,7.40
2014,12,08,03,18,7.30
2014,12,08,03,19,7.30
2014,12,08,03,20,7.30
2014,12,08,03,21,7.30
2014,12,08,03,22,7.30
2014,12,08,03,23,7.30
2014,12,08,03,24,7.30
2014,12,08,03,25,7.30
2014,12,08,03,26,7.30
2014,12,08,03,27,7.30
2014,12,08,03,28,7.30
2014,12,08,03,29,7.30
2014,12,08,03,30,7.30
2014,12,08,03,31,7.30
2014,12,08,03,32,7.30
2014,12,08,03,33,7.30
2014,12,08,03,34,7.30
2014,12,08,03,35,7.30
2014,12,08,03,36,7.30
2014,12,08,03,37,7.30
2014,12,08,03,38,7.30
2014,12,08,03,39,7.30
2014,12,08,03,40,7.30
2014,12,08,03,41,7.30
2014,12,08,03,42,7.30
2014,12,08,03,43,7.30
2014,12,08,03,44,7.30
2014,12,08,03,45,7.30
2014,12,08,03,46,7.30
2014,12,08,03,47,7.30
2014,12,08,03,48,7.30
2014,12,08,03,49,7.30
2014,12,08,03,50,7.30
2014,12,08,03,51,7.30
2014,12,08,03,52,7.40
2014,12,08,03,53,7.40
2014,12,08,03,54,7.40
2014,12,08,03,55,7.40
2014,12,08,03,56,7.40
2014,12,08,03,57,7.40
2014,12,08,03,58,7.40
2014,12,08,03,59,7.50
2014,12,08,04,00,7.50
2014,12,08,04,01,7.50
2014,12,08,04,02,7.50
2014,12,08,04,03,7.50
2014,12,08,04,04,7.60
2014,12,08,04,05,7.60
2014,12,08,04,06,7.60
2014,12,08,04,07,7.60
2014,12,08,04,08,7.60
2014,12,08,04,09,7.60
2014,12,08,04,10,7.60
2014,12,08,04,11,7.60
2014,12,08,04,12,7.60
2014,12,08,04,13,7.60
2014,12,08,04,14,7.60
2014,12,08,04,15,7.60
2014,12,08,04,16,7.60
2014,12,08,04,17,7.60
2014,12,08,04,18,7.60
2014,12,08,04,19,7.60
2014,12,08,04,20,7.60
2014,12,08,04,21,7.60
2014,12,08,04,22,7.70
2014,12,08,04,23,7.70
2014,12,08,04,24,7.70
2014,12,08,04,25,7.70
2014,12,08,04,26,7.70
2014,12,08,04,27,7.70
2014,12,08,04,28,7.70
2014,12,08,04,29,7.70
2014,12,08,04,30,7.70
2014,12,08,04,31,7.70
2014,12,08,04,32,7.70
2014,12,08,04,33,7.70
2014,12,08,04,34,7.70
2014,12,08,04,35,7.70
2014,12,08,04,36,7.70
2014,12,08,04,37,7.70
2014,12,08,04,38,7.70
2014,12,08,04,39,7.70
2014,12,08,04,40,7.70
2014,12,08,04,41,7.70
2014,12,08,04,42,7.70
2014,12,08,04,43,7.70
2014,12,08,04,44,7.70
2014,12,08,04,45,7.70
2014,12,08,04,46,7.70
2014,12,08,04,47,7.70
2014,12,08,04,48,7.70
2014,12,08,04,49,7.70
2014,12,08,04,50,7.70
2014,12,08,04,51,7.70
2014,12,08,04,52,7.70
2014,12,08,04,53,7.70
2014,12,08,04,54,7.70
2014,12,08,04,55,7.70
2014,12,08,04,56,7.70
2014,12,08,04,57,7.70
2014,12,08,04,58,7.70
2014,12,08,04,59,7.70
2014,12,08,05,00,7.70
2014,12,08,05,01,7.70
2014,12,08,05,02,7.70
2014,12,08,05,03,7.60
2014,12,08,05,04,7.60
2014,12,08,05,05,7.60
2014,12,08,05,06,7.60
2014,12,08,05,07,7.60
2014,12,08,05,08,7.60
2014,12,08,05,09,7.60
2014,12,08,05,10,7.60
2014,12,08,05,11,7.60
2014,12,08,05,12,7.60
2014,12,08,05,13,7.60
2014,12,08,05,14,7.60
2014,12,08,05,15,7.60
2014,12,08,05,16,7.60
2014,12,08,05,17,7.60
2014,12,08,05,18,7.70
2014,12,08,05,19,7.70
2014,12,08,05,20,7.70
2014,12,08,05,21,7.70
2014,12,08,05,22,7.70
2014,12,08,05,23,7.80
2014,12,08,05,24,7.80
2014,12,08,05,25,7.80
2014,12,08,05,26,7.80
2014,12,08,05,27,7.80
2014,12,08,05,28,7.80
2014,12,08,05,29,7.80
2014,12,08,05,30,7.80
2014,12,08,05,31,7.80
2014,12,08,05,32,7.80
2014,12,08,05,33,7.80
2014,12,08,05,34,7.80
2014,12,08,05,35,7.80
2014,12,08,05,36,7.80
2014,12,08,05,37,7.90
2014,12,08,05,38,7.90
2014,12,08,05,39,7.90
2014,12,08,05,40,7.80
2014,12,08,05,41,7.90
2014,12,08,05,42,7.80
2014,12,08,05,43,7.80
2014,12,08,05,44,7.80
2014,12,08,05,45,7.80
2014,12,08,05,46,7.80
2014,12,08,05,47,7.80
2014,12,08,05,48,7.80
2014,12,08,05,49,7.80
2014,12,08,05,50,7.80
2014,12,08,05,51,7.90
2014,12,08,05,52,7.90
2014,12,08,05,53,7.90
2014,12,08,05,54,7.90
2014,12,08,05,55,7.90
2014,12,08,05,56,7.90
2014,12,08,05,57,7.90
2014,12,08,05,58,7.90
2014,12,08,05,59,7.90
2014,12,08,06,00,7.90
2014,12,08,06,01,7.90
2014,12,08,06,02,7.90
2014,12,08,06,03,7.90
2014,12,08,06,04,7.80
2014,12,08,06,05,7.80
2014,12,08,06,06,7.80
2014,12,08,06,07,7.80
2014,12,08,06,08,7.80
2014,12,08,06,09,7.80
2014,12,08,06,10,7.80
2014,12,08,06,11,7.70
2014,12,08,06,12,7.70
2014,12,08,06,13,7.70
2014,12,08,06,14,7.70
2014,12,08,06,15,7.70
2014,12,08,06,16,7.70
2014,12,08,06,17,7.70
2014,12,08,06,18,7.70
2014,12,08,06,19,7.60
2014,12,08,06,20,7.60
2014,12,08,06,21,7.60
2014,12,08,06,22,7.60
2014,12,08,06,23,7.60
2014,12,08,06,24,7.60
2014,12,08,06,25,7.60
2014,12,08,06,26,7.60
2014,12,08,06,27,7.60
2014,12,08,06,28,7.60
2014,12,08,06,29,7.60
2014,12,08,06,30,7.60
2014,12,08,06,31,7.60
2014,12,08,06,32,7.60
2014,12,08,06,33,7.60
2014,12,08,06,34,7.60
2014,12,08,06,35,7.60
2014,12,08,06,36,7.50
2014,12,08,06,37,7.50
2014,12,08,06,38,7.50
2014,12,08,06,39,7.50
2014,12,08,06,40,7.50
2014,12,08,06,41,7.50
2014,12,08,06,42,7.50
2014,12,08,06,43,7.50
2014,12,08,06,44,7.40
2014,12,08,06,45,7.50
2014,12,08,06,46,7.50
2014,12,08,06,47,7.50
2014,12,08,06,48,7.50
2014,12,08,06,49,7.60
2014,12,08,06,50,7.60
2014,12,08,06,51,7.60
2014,12,08,06,52,7.60
2014,12,08,06,53,7.70
2014,12,08,06,54,7.70
2014,12,08,06,55,7.70
2014,12,08,06,56,7.70
2014,12,08,06,57,7.70
2014,12,08,06,58,7.70
2014,12,08,06,59,7.80
2014,12,08,07,00,7.80
2014,12,08,07,01,7.80
2014,12,08,07,02,7.80
2014,12,08,07,03,7.80
2014,12,08,07,04,7.80
2014,12,08,07,05,7.80
2014,12,08,07,06,7.80
2014,12,08,07,07,7.80
2014,12,08,07,08,7.80
2014,12,08,07,09,7.80
2014,12,08,07,10,7.80
2014,12,08,07,11,7.80
2014,12,08,07,12,7.80
2014,12,08,07,13,7.80
2014,12,08,07,14,7.80
2014,12,08,07,15,7.80
2014,12,08,07,16,7.90
2014,12,08,07,17,7.90
2014,12,08,07,18,7.90
2014,12,08,07,19,7.90
2014,12,08,07,20,7.90
2014,12,08,07,21,8.00
2014,12,08,07,22,8.00
2014,12,08,07,23,8.00
2014,12,08,07,24,8.00
2014,12,08,07,25,8.10
2014,12,08,07,26,8.10
2014,12,08,07,27,8.10
2014,12,08,07,28,8.10
2014,12,08,07,29,8.10
2014,12,08,07,30,8.10
2014,12,08,07,31,8.10
2014,12,08,07,32,8.10
2014,12,08,07,33,8.10
2014,12,08,07,34,8.10
2014,12,08,07,35,8.10
2014,12,08,07,36,8.10
2014,12,08,07,37,8.10
2014,12,08,07,38,8.10
2014,12,08,07,39,8.10
2014,12,08,07,40,8.10
2014,12,08,07,41,8.10
2014,12,08,07,42,8.10
2014,12,08,07,43,8.10
2014,12,08,07,44,8.10
2014,12,08,07,45,8.10
2014,12,08,07,46,8.10
2014,12,08,07,47,8.10
2014,12,08,07,48,8.10
2014,12,08,07,49,8.00
2014,12,08,07,50,8.00
2014,12,08,07,51,8.00
2014,12,08,07,52,8.00
2014,12,08,07,53,8.00
2014,12,08,07,54,7.90
2014,12,08,07,55,7.90
2014,12,08,07,56,7.90
2014,12,08,07,57,7.90
2014,12,08,07,58,7.90
2014,12,08,07,59,7.90
2014,12,08,08,00,7.90
2014,12,08,08,01,7.90
2014,12,08,08,02,7.80
2014,12,08,08,03,7.80
2014,12,08,08,04,7.80
2014,12,08,08,05,7.80
2014,12,08,08,06,7.80
2014,12,08,08,07,7.70
2014,12,08,08,08,7.70
2014,12,08,08,09,7.70
2014,12,08,08,10,7.70
2014,12,08,08,11,7.70
2014,12,08,08,12,7.60
2014,12,08,08,13,7.60
2014,12,08,08,14,7.60
2014,12,08,08,15,7.60
2014,12,08,08,16,7.60
2014,12,08,08,17,7.60
2014,12,08,08,18,7.60
2014,12,08,08,19,7.60
2014,12,08,08,20,7.60
2014,12,08,08,21,7.60
2014,12,08,08,22,7.50
2014,12,08,08,23,7.50
2014,12,08,08,24,7.50
2014,12,08,08,25,7.50
2014,12,08,08,26,7.40
2014,12,08,08,27,7.40
2014,12,08,08,28,7.40
2014,12,08,08,29,7.40
2014,12,08,08,30,7.40
2014,12,08,08,31,7.40
2014,12,08,08,32,7.40
2014,12,08,08,33,7.40
2014,12,08,08,34,7.40
2014,12,08,08,35,7.40
2014,12,08,08,36,7.40
2014,12,08,08,37,7.40
2014,12,08,08,38,7.40
2014,12,08,08,39,7.40
2014,12,08,08,40,7.40
2014,12,08,08,41,7.40
2014,12,08,08,42,7.50
2014,12,08,08,43,7.50
2014,12,08,08,44,7.50
2014,12,08,08,45,7.50
2014,12,08,08,46,7.50
2014,12,08,08,47,7.60
2014,12,08,08,48,7.60
2014,12,08,08,49,7.60
2014,12,08,08,50,7.60
2014,12,08,08,51,7.60
2014,12,08,08,52,7.60
2014,12,08,08,53,7.60
2014,12,08,08,54,7.70
2014,12,08,08,55,7.70
2014,12,08,08,56,7.70
2014,12,08,08,57,7.70
2014,12,08,08,58,7.70
2014,12,08,08,59,7.70
2014,12,08,09,00,7.70
2014,12,08,09,01,7.70
2014,12,08,09,02,7.70
2014,12,08,09,03,7.70
2014,12,08,09,04,7.70
2014,12,08,09,05,7.70
2014,12,08,09,06,7.70
2014,12,08,09,07,7.80
2014,12,08,09,08,7.80
2014,12,08,09,09,7.80
2014,12,08,09,10,7.80
2014,12,08,09,11,7.70
2014,12,08,09,12,7.70
2014,12,08,09,13,7.70
2014,12,08,09,14,7.70
2014,12,08,09,15,7.70
2014,12,08,09,16,7.70
2014,12,08,09,17,7.70
2014,12,08,09,18,7.70
2014,12,08,09,19,7.70
2014,12,08,09,20,7.70
2014,12,08,09,21,7.70
2014,12,08,09,22,7.70
2014,12,08,09,23,7.70
2014,12,08,09,24,7.70
2014,12,08,09,25,7.70
2014,12,08,09,26,7.70
2014,12,08,09,27,7.70
2014,12,08,09,28,7.80
2014,12,08,09,29,7.80
2014,12,08,09,30,7.80
2014,12,08,09,31,7.80
2014,12,08,09,32,7.80
2014,12,08,09,33,7.80
2014,12,08,09,34,7.80
2014,12,08,09,35,7.80
2014,12,08,09,36,7.80
2014,12,08,09,37,7.80
2014,12,08,09,38,7.80
2014,12,08,09,39,7.80
2014,12,08,09,40,7.80
2014,12,08,09,41,7.90
2014,12,08,09,42,7.80
2014,12,08,09,43,7.90
2014,12,08,09,44,7.80
2014,12,08,09,45,7.80
2014,12,08,09,46,7.80
2014,12,08,09,47,7.80
2014,12,08,09,48,7.80
2014,12,08,09,49,7.80
2014,12,08,09,50,7.80
2014,12,08,09,51,7.80
2014,12,08,09,52,7.80
2014,12,08,09,53,7.80
2014,12,08,09,54,7.80
2014,12,08,09,55,7.80
2014,12,08,09,56,7.80
2014,12,08,09,57,7.80
2014,12,08,09,58,7.80
2014,12,08,09,59,7.80
2014,12,08,10,00,7.80
2014,12,08,10,01,7.80
2014,12,08,10,02,7.80
2014,12,08,10,03,7.80
2014,12,08,10,04,7.80
2014,12,08,10,05,7.80
2014,12,08,10,06,7.80
2014,12,08,10,07,7.80
2014,12,08,10,08,7.80
2014,12,08,10,09,7.90
2014,12,08,10,10,7.90
2014,12,08,10,11,7.90
2014,12,08,10,12,7.90
2014,12,08,10,13,7.90
2014,12,08,10,14,7.90
2014,12,08,10,15,8.00
2014,12,08,10,16,8.00
2014,12,08,10,17,8.00
2014,12,08,10,18,8.00
2014,12,08,10,19,8.10
2014,12,08,10,20,8.10
2014,12,08,10,21,8.10
2014,12,08,10,22,8.10
2014,12,08,10,23,8.20
2014,12,08,10,24,8.20
2014,12,08,10,25,8.20
2014,12,08,10,26,8.30
2014,12,08,10,27,8.30
2014,12,08,10,28,8.30
2014,12,08,10,29,8.30
2014,12,08,10,30,8.40
2014,12,08,10,31,8.40
2014,12,08,10,32,8.40
2014,12,08,10,33,8.50
2014,12,08,10,34,8.50
2014,12,08,10,35,8.50
2014,12,08,10,36,8.60
2014,12,08,10,37,8.60
2014,12,08,10,38,8.70
2014,12,08,10,39,8.70
2014,12,08,10,40,8.80
2014,12,08,10,41,8.80
2014,12,08,10,42,8.80
2014,12,08,10,43,8.90
2014,12,08,10,44,8.90
2014,12,08,10,45,9.00
2014,12,08,10,46,9.00
2014,12,08,10,47,9.00
2014,12,08,10,48,9.10
2014,12,08,10,49,9.10
2014,12,08,10,50,9.10
2014,12,08,10,51,9.20
2014,12,08,10,52,9.20
2014,12,08,10,53,9.20
2014,12,08,10,54,9.20
2014,12,08,10,55,9.20
2014,12,08,10,56,9.30
2014,12,08,10,57,9.30
2014,12,08,10,58,9.30
2014,12,08,10,59,9.30
2014,12,08,11,00,9.30
2014,12,08,11,01,9.40
2014,12,08,11,02,9.40
2014,12,08,11,03,9.40
2014,12,08,11,04,9.40
2014,12,08,11,05,9.40
2014,12,08,11,06,9.40
2014,12,08,11,07,9.40
2014,12,08,11,08,9.40
2014,12,08,11,09,9.40
2014,12,08,11,10,9.40
2014,12,08,11,11,9.40
2014,12,08,11,12,9.50
2014,12,08,11,13,9.50
2014,12,08,11,14,9.50
2014,12,08,11,15,9.50
2014,12,08,11,16,9.50
2014,12,08,11,17,9.60
2014,12,08,11,18,9.60
2014,12,08,11,19,9.60
2014,12,08,11,20,9.60
2014,12,08,11,21,9.60
2014,12,08,11,22,9.60
2014,12,08,11,23,9.60
2014,12,08,11,24,9.60
2014,12,08,11,25,9.60
2014,12,08,11,26,9.60
2014,12,08,11,27,9.60
2014,12,08,11,28,9.60
2014,12,08,11,29,9.60
2014,12,08,11,30,9.60
2014,12,08,11,31,9.60
2014,12,08,11,32,9.60
2014,12,08,11,33,9.60
2014,12,08,11,34,9.60
2014,12,08,11,35,9.60
2014,12,08,11,36,9.60
2014,12,08,11,37,9.60
2014,12,08,11,38,9.60
2014,12,08,11,39,9.60
2014,12,08,11,40,9.60
2014,12,08,11,41,9.60
2014,12,08,11,42,9.60
2014,12,08,11,43,9.60
2014,12,08,11,44,9.60
2014,12,08,11,45,9.60
2014,12,08,11,46,9.60
2014,12,08,11,47,9.60
2014,12,08,11,48,9.60
2014,12,08,11,49,9.60
2014,12,08,11,50,9.60
2014,12,08,11,51,9.60
2014,12,08,11,52,9.70
2014,12,08,11,53,9.70
2014,12,08,11,54,9.70
2014,12,08,11,55,9.70
2014,12,08,11,56,9.70
2014,12,08,11,57,9.70
2014,12,08,11,58,9.70
2014,12,08,11,59,9.80
2014,12,08,12,00,9.80
2014,12,08,12,01,9.80
2014,12,08,12,02,9.80
2014,12,08,12,03,9.80
2014,12,08,12,04,9.80
2014,12,08,12,05,9.90
2014,12,08,12,06,9.90
2014,12,08,12,07,9.90
2014,12,08,12,08,9.90
2014,12,08,12,09,9.90
2014,12,08,12,10,10.00
2014,12,08,12,11,10.00
2014,12,08,12,12,10.00
2014,12,08,12,13,10.00
2014,12,08,12,14,10.10
2014,12,08,12,15,10.10
2014,12,08,12,16,10.10
2014,12,08,12,17,10.10
2014,12,08,12,18,10.10
2014,12,08,12,19,10.10
2014,12,08,12,20,10.10
2014,12,08,12,21,10.10
2014,12,08,12,22,10.10
2014,12,08,12,23,10.10
2014,12,08,12,24,10.10
2014,12,08,12,25,10.10
2014,12,08,12,26,10.00
2014,12,08,12,27,10.00
2014,12,08,12,28,10.00
2014,12,08,12,29,10.00
2014,12,08,12,30,10.00
2014,12,08,12,31,10.00
2014,12,08,12,32,10.00
2014,12,08,12,33,10.00
2014,12,08,12,34,10.10
2014,12,08,12,35,10.10
2014,12,08,12,36,10.10
2014,12,08,12,37,10.10
2014,12,08,12,38,10.00
2014,12,08,12,39,10.10
2014,12,08,12,40,10.10
2014,12,08,12,41,10.10
2014,12,08,12,42,10.10
2014,12,08,12,43,10.10
2014,12,08,12,44,10.10
2014,12,08,12,45,10.10
2014,12,08,12,46,10.10
2014,12,08,12,47,10.10
2014,12,08,12,48,10.10
2014,12,08,12,49,10.10
2014,12,08,12,50,10.10
2014,12,08,12,51,10.10
2014,12,08,12,52,10.10
2014,12,08,12,53,10.20
2014,12,08,12,54,10.20
2014,12,08,12,55,10.20
2014,12,08,12,56,10.20
2014,12,08,12,57,10.20
2014,12,08,12,58,10.20
2014,12,08,12,59,10.20
2014,12,08,13,00,10.20
2014,12,08,13,01,10.20
2014,12,08,13,02,10.20
2014,12,08,13,03,10.20
2014,12,08,13,04,10.20
2014,12,08,13,05,10.20
2014,12,08,13,06,10.20
2014,12,08,13,07,10.20
2014,12,08,13,08,10.20
2014,12,08,13,09,10.30
2014,12,08,13,10,10.30
2014,12,08,13,11,10.30
2014,12,08,13,12,10.30
2014,12,08,13,13,10.30
2014,12,08,13,14,10.30
2014,12,08,13,15,10.20
2014,12,08,13,16,10.20
2014,12,08,13,17,10.20
2014,12,08,13,18,10.20
2014,12,08,13,19,10.20
2014,12,08,13,20,10.20
2014,12,08,13,21,10.10
2014,12,08,13,22,10.10
2014,12,08,13,23,10.10
2014,12,08,13,24,10.10
2014,12,08,13,25,10.10
2014,12,08,13,26,10.10
2014,12,08,13,27,10.00
2014,12,08,13,28,10.00
2014,12,08,13,29,10.00
2014,12,08,13,30,10.00
2014,12,08,13,31,9.90
2014,12,08,13,32,9.90
2014,12,08,13,33,9.90
2014,12,08,13,34,9.90
2014,12,08,13,35,9.90
2014,12,08,13,36,9.80
2014,12,08,13,37,9.80
2014,12,08,13,38,9.80
2014,12,08,13,39,9.80
2014,12,08,13,40,9.80
2014,12,08,13,41,9.70
2014,12,08,13,42,9.70
2014,12,08,13,43,9.70
2014,12,08,13,44,9.70
2014,12,08,13,45,9.70
2014,12,08,13,46,9.70
2014,12,08,13,47,9.70
2014,12,08,13,48,9.70
2014,12,08,13,49,9.70
2014,12,08,13,50,9.70
2014,12,08,13,51,9.70
2014,12,08,13,52,9.70
2014,12,08,13,53,9.70
2014,12,08,13,54,9.70
2014,12,08,13,55,9.60
2014,12,08,13,56,9.60
2014,12,08,13,57,9.60
2014,12,08,13,58,9.60
2014,12,08,13,59,9.60
2014,12,08,14,00,9.60
2014,12,08,14,01,9.60
2014,12,08,14,02,9.60
2014,12,08,14,03,9.50
2014,12,08,14,04,9.50
2014,12,08,14,05,9.50
2014,12,08,14,06,9.40
2014,12,08,14,07,9.40
2014,12,08,14,08,9.40
2014,12,08,14,09,9.30
2014,12,08,14,10,9.30
2014,12,08,14,11,9.30
2014,12,08,14,12,9.20
2014,12,08,14,13,9.20
2014,12,08,14,14,9.20
2014,12,08,14,15,9.20
2014,12,08,14,16,9.20
2014,12,08,14,17,9.20
2014,12,08,14,18,9.20
2014,12,08,14,19,9.10
2014,12,08,14,20,9.10
2014,12,08,14,21,9.10
2014,12,08,14,22,9.10
2014,12,08,14,23,9.20
2014,12,08,14,24,9.20
2014,12,08,14,25,9.20
2014,12,08,14,26,9.20
2014,12,08,14,27,9.10
2014,12,08,14,28,9.20
2014,12,08,14,29,9.20
2014,12,08,14,30,9.20
2014,12,08,14,31,9.20
2014,12,08,14,32,9.20
2014,12,08,14,33,9.20
2014,12,08,14,34,9.20
2014,12,08,14,35,9.20
2014,12,08,14,36,9.20
2014,12,08,14,37,9.20
2014,12,08,14,38,9.20
2014,12,08,14,39,9.20
2014,12,08,14,40,9.10
2014,12,08,14,41,9.10
2014,12,08,14,42,9.10
2014,12,08,14,43,9.10
2014,12,08,14,44,9.10
2014,12,08,14,45,9.10
2014,12,08,14,46,9.10
2014,12,08,14,47,9.10
2014,12,08,14,48,9.10
2014,12,08,14,49,9.10
2014,12,08,14,50,9.10
2014,12,08,14,51,9.10
2014,12,08,14,52,9.10
2014,12,08,14,53,9.10
2014,12,08,14,54,9.10
2014,12,08,14,55,9.10
2014,12,08,14,56,9.10
2014,12,08,14,57,9.20
2014,12,08,14,58,9.20
2014,12,08,14,59,9.20
2014,12,08,15,00,9.20
2014,12,08,15,01,9.20
2014,12,08,15,02,9.20
2014,12,08,15,03,9.30
2014,12,08,15,04,9.30
2014,12,08,15,05,9.30
2014,12,08,15,06,9.30
2014,12,08,15,07,9.30
2014,12,08,15,08,9.40
2014,12,08,15,09,9.40
2014,12,08,15,10,9.40
2014,12,08,15,11,9.40
2014,12,08,15,12,9.40
2014,12,08,15,13,9.40
2014,12,08,15,14,9.40
2014,12,08,15,15,9.40
2014,12,08,15,16,9.50
2014,12,08,15,17,9.50
2014,12,08,15,18,9.50
2014,12,08,15,19,9.50
2014,12,08,15,20,9.50
2014,12,08,15,21,9.50
2014,12,08,15,22,9.50
2014,12,08,15,23,9.50
2014,12,08,15,24,9.50
2014,12,08,15,25,9.50
2014,12,08,15,26,9.50
2014,12,08,15,27,9.50
2014,12,08,15,28,9.60
2014,12,08,15,29,9.60
2014,12,08,15,30,9.60
2014,12,08,15,31,9.60
2014,12,08,15,32,9.60
2014,12,08,15,33,9.60
2014,12,08,15,34,9.60
2014,12,08,15,35,9.60
2014,12,08,15,36,9.60
2014,12,08,15,37,9.60
2014,12,08,15,38,9.60
2014,12,08,15,39,9.60
2014,12,08,15,40,9.60
2014,12,08,15,41,9.60
2014,12,08,15,42,9.60
2014,12,08,15,43,9.60
2014,12,08,15,44,9.60
2014,12,08,15,45,9.50
2014,12,08,15,46,9.50
2014,12,08,15,47,9.50
2014,12,08,15,48,9.50
2014,12,08,15,49,9.40
2014,12,08,15,50,9.40
2014,12,08,15,51,9.40
2014,12,08,15,52,9.40
2014,12,08,15,53,9.40
2014,12,08,15,54,9.50
2014,12,08,15,55,9.50
2014,12,08,15,56,9.50
2014,12,08,15,57,9.60
2014,12,08,15,58,9.60
2014,12,08,15,59,9.60
2014,12,08,16,00,9.60
2014,12,08,16,01,9.60
2014,12,08,16,02,9.60
2014,12,08,16,03,9.60
2014,12,08,16,04,9.60
2014,12,08,16,05,9.60
2014,12,08,16,06,9.60
2014,12,08,16,07,9.60
2014,12,08,16,08,9.60
2014,12,08,16,09,9.60
2014,12,08,16,10,9.60
2014,12,08,16,11,9.60
2014,12,08,16,12,9.60
2014,12,08,16,13,9.60
2014,12,08,16,14,9.60
2014,12,08,16,15,9.60
2014,12,08,16,16,9.60
2014,12,08,16,17,9.60
2014,12,08,16,18,9.60
2014,12,08,16,19,9.60
2014,12,08,16,20,9.60
2014,12,08,16,21,9.60
2014,12,08,16,22,9.60
2014,12,08,16,23,9.60
2014,12,08,16,24,9.50
2014,12,08,16,25,9.50
2014,12,08,16,26,9.50
2014,12,08,16,27,9.50
2014,12,08,16,28,9.50
2014,12,08,16,29,9.40
2014,12,08,16,30,9.40
2014,12,08,16,31,9.40
2014,12,08,16,32,9.40
2014,12,08,16,33,9.40
2014,12,08,16,34,9.40
2014,12,08,16,35,9.30
2014,12,08,16,36,9.30
2014,12,08,16,37,9.30
2014,12,08,16,38,9.30
2014,12,08,16,39,9.30
2014,12,08,16,40,9.30
2014,12,08,16,41,9.30
2014,12,08,16,42,9.30
2014,12,08,16,43,9.30
2014,12,08,16,44,9.30
2014,12,08,16,45,9.30
2014,12,08,16,46,9.20
2014,12,08,16,47,9.20
2014,12,08,16,48,9.20
2014,12,08,16,49,9.20
2014,12,08,16,50,9.20
2014,12,08,16,51,9.20
2014,12,08,16,52,9.20
2014,12,08,16,53,9.20
2014,12,08,16,54,9.20
2014,12,08,16,55,9.20
2014,12,08,16,56,9.20
2014,12,08,16,57,9.10
2014,12,08,16,58,9.10
2014,12,08,16,59,9.10
2014,12,08,17,00,9.10
2014,12,08,17,01,9.10
2014,12,08,17,02,9.10
2014,12,08,17,03,9.20
2014,12,08,17,04,9.10
2014,12,08,17,05,9.20
2014,12,08,17,06,9.20
2014,12,08,17,07,9.20
2014,12,08,17,08,9.20
2014,12,08,17,09,9.20
2014,12,08,17,10,9.20
2014,12,08,17,11,9.20
2014,12,08,17,12,9.20
2014,12,08,17,13,9.20
2014,12,08,17,14,9.20
2014,12,08,17,15,9.20
2014,12,08,17,16,9.20
2014,12,08,17,17,9.20
2014,12,08,17,18,9.10
2014,12,08,17,19,9.10
2014,12,08,17,20,9.10
2014,12,08,17,21,9.10
2014,12,08,17,22,9.10
2014,12,08,17,23,9.10
2014,12,08,17,24,9.10
2014,12,08,17,25,9.10
2014,12,08,17,26,9.10
2014,12,08,17,27,9.10
2014,12,08,17,28,9.10
2014,12,08,17,29,9.10
2014,12,08,17,30,9.10
2014,12,08,17,31,9.10
2014,12,08,17,32,9.10
2014,12,08,17,33,9.10
2014,12,08,17,34,9.00
2014,12,08,17,35,9.00
2014,12,08,17,36,9.00
2014,12,08,17,37,9.00
2014,12,08,17,38,9.00
2014,12,08,17,39,9.00
2014,12,08,17,40,9.00
2014,12,08,17,41,9.00
2014,12,08,17,42,8.90
2014,12,08,17,43,8.90
2014,12,08,17,44,8.90
2014,12,08,17,45,8.90
2014,12,08,17,46,8.90
2014,12,08,17,47,8.90
2014,12,08,17,48,8.90
2014,12,08,17,49,8.90
2014,12,08,17,50,8.90
2014,12,08,17,51,8.90
2014,12,08,17,52,8.90
2014,12,08,17,53,8.90
2014,12,08,17,54,8.90
2014,12,08,17,55,8.90
2014,12,08,17,56,8.80
2014,12,08,17,57,8.80
2014,12,08,17,58,8.90
2014,12,08,17,59,8.90
2014,12,08,18,00,8.90
2014,12,08,18,01,8.90
2014,12,08,18,02,8.90
2014,12,08,18,03,8.90